Address 0x2d8331f75c4a9b901381236d150365c7c1d07379 22

 
Txn Hash Method
Block
From
To
Value [Txn Fee]
0x67889f5ceb33084b6e95c3a77b828a3deae9cddd7f422150ea021e48860cb2f90x9871efa41983251812024-04-06 22:15:2315 days 14 hrs ago0x2d8331f75c4a9b901381236d150365c7c1d07379OUT OKX DEX: Aggregation Router0 ETH0.00000292 0.01
0xd80785dfb9335b38e0e141aa46996618cca9642e2b91e285a658f6a0ea14446cApprove1983251112024-04-06 22:15:0615 days 14 hrs ago0x2d8331f75c4a9b901381236d150365c7c1d07379OUT Arbitrum: USDC Token0 ETH0.00000089 0.01
0xdc6baec1d114bfc9e55e3b6c19f180737a666084810ad482e6f12d1c6cc7c5ffSwap ETH1796277502024-02-11 10:14:2271 days 2 hrs ago0x2d8331f75c4a9b901381236d150365c7c1d07379OUT Stargate Finance: ETH Router0.00367552092992 ETH0.00013455 0.1
0x7374ffa9f31f03ff517ffee3609da2f6bfdc03e282de6d7303a812282ee91376Transfer1796238262024-02-11 9:57:4371 days 2 hrs ago0x2d8331f75c4a9b901381236d150365c7c1d07379OUT Arbitrum: USDC Token0 ETH0.00007167 0.1
0x6dd865876bfd0ca6dd04304842a55252ca7464552f3545064791a5eb79aa8894Process Route1796235432024-02-11 9:56:3471 days 2 hrs ago0x2d8331f75c4a9b901381236d150365c7c1d07379OUT SushiSwap: Route Processor v3.20 ETH0.00015047 0.1
0xefdbce8c7a783c9d3a01c7a48c2ce17220b52e987a17704cfcbdeeefb7c7a3e5Approve1796234962024-02-11 9:56:2271 days 2 hrs ago0x2d8331f75c4a9b901381236d150365c7c1d07379OUT Circle: USDC Token0 ETH0.00006484 0.1
0xa5a5cd680562235ff3e4ddbaf020f28c3a920e346abaebf3b3cd76862fafafceMulticall1796145912024-02-11 9:18:3371 days 3 hrs ago0x2d8331f75c4a9b901381236d150365c7c1d07379OUT SushiSwap: Furo Stream Router0 ETH0.00021602 0.1
0xf8a994d8d60fb5fdf05f48bab02e47ca2ee1c93e35ad9899394f0fe838abaaccApprove1796145312024-02-11 9:18:1771 days 3 hrs ago0x2d8331f75c4a9b901381236d150365c7c1d07379OUT Circle: USDC Token0 ETH0.0000718 0.1
0xd8e9dce0e58d0a7bb02be9aeb8415084dcb7db415032134865f40d02241cbb35Process Route1796134862024-02-11 9:13:4571 days 3 hrs ago0x2d8331f75c4a9b901381236d150365c7c1d07379OUT SushiSwap: Route Processor v3.20.005 ETH0.00019787 0.1
0xabc39d450f462315c375aa54137f5ef2bccfb49b15ed95c6e72c317f3bc04c5fBridge Deposit1796101772024-02-11 8:59:2171 days 3 hrs ago0x3e9431f75c4a9b901381236d150365c7c1d0848a IN 0x2d8331f75c4a9b901381236d150365c7c1d073790.01 ETH00.1
0x4284371fa6507366981efa5a57acbc9815cbf25bb0e25a0c0c25d516ba8a10f4Deposit Native1127354382023-07-19 8:12:04278 days 4 hrs ago0x2d8331f75c4a9b901381236d150365c7c1d07379OUT Rhino.fi: Bridge0.004363242979493 ETH0.00002479 0.1
0xc466d2c4087acf4dcd0548d7d1f96f37c7e4d982ecb72b2d1aadf32e983edd0fApprove1071158252023-07-02 12:20:35295 days 33 mins ago0x2d8331f75c4a9b901381236d150365c7c1d07379OUT Arbitrum: USDC Token0 ETH0.00003328 0.1
0x24a31b6fa985bdc88dc7cd870cc47764d4451c32c72c32cf8da3fda3c4ec5fc6Approve1071158022023-07-02 12:20:29295 days 33 mins ago0x2d8331f75c4a9b901381236d150365c7c1d07379OUT Factor: FCTR Token0 ETH0.00003264 0.1
0xd61ee65a693b9d48623297ae0c4cee5d39620c039b6ee2db7be8a749f458a99aApprove1071157802023-07-02 12:20:23295 days 33 mins ago0x2d8331f75c4a9b901381236d150365c7c1d07379OUT Arbitrum: USDC Token0 ETH0.00003328 0.1
0x973363b0006b2cb0c98797a3a8e414983fcc420ee5e56e946cb85b2560eb2febApprove1071157532023-07-02 12:20:16295 days 34 mins ago0x2d8331f75c4a9b901381236d150365c7c1d07379OUT Arbitrum: USDC Token0 ETH0.00003328 0.1
0xb0512314e9ad016728eb1b0f113fefde1b70be506027e4a3ba310f52dc5b904fApprove1071157262023-07-02 12:20:10295 days 34 mins ago0x2d8331f75c4a9b901381236d150365c7c1d07379OUT Factor: FCTR Token0 ETH0.00003264 0.1
0x509385dc58dc0d271404528b27b6c8c02fa599f14b0b3c5e17ada2a984d65d09Approve1071157072023-07-02 12:20:05295 days 34 mins ago0x2d8331f75c4a9b901381236d150365c7c1d07379OUT Factor: FCTR Token0 ETH0.00003264 0.1
0x7af5ca9acbdc147f07544c6ec15a0abc8a847ba971b46b1de0d18fc2f52a8d1aApprove1071156832023-07-02 12:19:59295 days 34 mins ago0x2d8331f75c4a9b901381236d150365c7c1d07379OUT ArbDoge.AI: AICODE Token0 ETH0.00003198 0.1
0x7c74ecd64e6753f6b31b4a3d09e7a25bf505a2e5f05a129fac929059748c068bSelect Pill1070861702023-07-02 10:15:53295 days 2 hrs ago0x2d8331f75c4a9b901381236d150365c7c1d07379OUT Vela Exchange : Swap And Airdrop0 ETH0.00002696 0.1
0xdebf634906fa420e616978aa07f649db4a3a56bd364247a2fc1501b7fa62bfa2Swap ETH And Red...925439102023-05-20 8:28:15338 days 4 hrs ago0x2d8331f75c4a9b901381236d150365c7c1d07379OUT Synapse: Bridge Zap 10.08 ETH0.00011976 0.1
0xba01c166e5b12b317871f45a1487a9fc88df1a092ca13fe0f8e3e483a8966448Swap Exact Token...925431462023-05-20 8:25:05338 days 4 hrs ago0x2d8331f75c4a9b901381236d150365c7c1d07379OUT Camelot: Router0 ETH0.00012444 0.1
0xb3fdc1645cda5e7a5d84f5f988f83c5a6ba0917fdb952be89f67e619c1ee5f5cApprove925430692023-05-20 8:24:45338 days 4 hrs ago0x2d8331f75c4a9b901381236d150365c7c1d07379OUT Arbitrum: USDC Token0 ETH0.00005664 0.1
0x35a2af51e6288dbf2da0428a1d4332021ae8b5fbd35f5d916ecad68a07705e0bTransfer900564612023-05-12 20:54:10345 days 16 hrs ago0x2d8331f75c4a9b901381236d150365c7c1d07379OUT Tether: USDT Token0 ETH0.00010586 0.1
0xab992d260ced00845273d106314f28fa26a26551b5bf5b7fa5772e5191cbf595Swap900557642023-05-12 20:51:11345 days 16 hrs ago0x2d8331f75c4a9b901381236d150365c7c1d07379OUT Odos: Router V10 ETH0.0002968 0.1
0x3c669867fb3960ec1229bbadad498ab901fcf2c709442290907159ffcab101c7Approve900551062023-05-12 20:48:26345 days 16 hrs ago0x2d8331f75c4a9b901381236d150365c7c1d07379OUT Arbitrum: USDC Token0 ETH0.0001227 0.1
[ Download CSV Export 
Latest 2 internal transactions
Parent Txn Hash Block From To Value
0xba01c166e5b12b317871f45a1487a9fc88df1a092ca13fe0f8e3e483a8966448925431462023-05-20 8:25:05338 days 4 hrs ago Camelot: Router0x2d8331f75c4a9b901381236d150365c7c1d073790.082184862472242858 ETH
0x1ce63dce1f6e5057e6f4a40946c2bacfe4cf40757d34d97b8175d87f3c6f71b3620764042023-02-18 11:01:43429 days 1 hr ago Uniswap: Universal Router0x2d8331f75c4a9b901381236d150365c7c1d073790.000951334318219672 ETH
[ Download CSV Export 
Loading

Contract Name:
0 ETH

Compiler Version
0

Optimization Enabled:
0 ETH

Other Settings:
-NA-
Block Transaction Gas Used Reward
Age Block Fee Address BC Fee Address Voting Power Jailed Incoming
Block Uncle Number Difficulty Gas Used Reward
Loading
Make sure to use the "Vote Down" button for any spammy posts, and the "Vote Up" for interesting conversations.